{"data":{"norad_id":68015,"epoch":"2026-09-20T02:45:59.848128Z","epoch_age_seconds":92786,"freshness":"FRESH","line1":"1 68015U 26040A   26263.11527602  .00017978  00000+0  55783-3 0  9997","line2":"2 68015  97.2862 210.3817 0002628  89.2805 270.8739 15.33444227 31250","mean_motion":15.33444227,"eccentricity":0.0002628,"inclination_deg":97.2862,"raan_deg":210.3817,"arg_perigee_deg":89.2805,"mean_anomaly_deg":270.8739,"bstar":0.00055783,"rev_number":3125,"period_min":93.906251994387,"perigee_km":463.74695462898,"apogee_km":467.34399413751,"semimajor_km":6843.6824743832,"source":"CELESTRAK","updated_at":"2026-09-20T09:00:43.741098Z"}}